Find Starlink 34853

NORAD ID: 65892 Int'l Des: 2025-224 Owner: SPXS Country: US Constellation: starlink operational
LEOCIRCULAR

Current View

Loading 3D Globe...

About Starlink 34853

Description loading...

Upcoming Passes

Passes for default location (London). Set your location on the main map for personalized predictions.

Altitude History

Loading altitude history...

Two-Line Element Set

1 65892U 25224L 26151.53029387 .00060967 00000-0 18012-2 0 9999
2 65892 53.1610 345.4299 0000570 133.9966 226.1083 15.34394994 37501
Epoch: May 31, 2026 • Age: 9 hours

Current Status

Altitude 463.6 km
Velocity 7.64 km/s
Sub-Earth Point 0.99°N, 123.24°E
Launch Date Oct 7, 2025
Age 0.6 years
Type internet

Technical Details

Classification Payload
Mass 575.00 kg
Dry Mass 530.00 kg
Total Mass 575.00 kg
Length 0.30 m
Diameter 4.10 m
Span 29.00 m
Shape Box + pan
Manufacturer SPXS
Bus Type Starlink V2MO
Phase Status In Orbit
Owner/State SPXS/US

Most Searched